When you browse on this site, cookies collect data to enhance your experience and personalize the content and advertising you see.
Visit our Privacy Policy to learn more. By continuing to use the site, you agree to this use of cookies and data.

Tiempo cada hora Graneros

Hoy, 12 Agosto, Miércoles

Tiempo Temperatura Precipitaciones Viento Presión Humedad
00:00 +7°C° 0 mm 1 mps 718 mmHg 69%
01:00 +6°C° 0 mm 0 mps 718 mmHg 69%
02:00 +5°C° 0 mm 0 mps 718 mmHg 70%
03:00 +5°C° 0 mm 0 mps 718 mmHg 70%
04:00 +5°C° 0 mm 0 mps 718 mmHg 70%
05:00 +5°C° 0 mm 0 mps 718 mmHg 70%
06:00 +5°C° 0 mm 0 mps 718 mmHg 70%
07:00 +6°C° 0 mm 0 mps 719 mmHg 70%
08:00 +9°C° 0 mm 1 mps 719 mmHg 66%
09:00 +11°C° 0 mm 1 mps 719 mmHg 61%
10:00 +13°C° 0 mm 1 mps 719 mmHg 57%
11:00 +13°C° 0 mm 1 mps 719 mmHg 57%
12:00 +14°C° 0 mm 1 mps 719 mmHg 57%
13:00 +15°C° 0 mm 2 mps 718 mmHg 57%
14:00 +14°C° 0 mm 1 mps 718 mmHg 62%
15:00 +14°C° 0 mm 1 mps 719 mmHg 66%
16:00 +13°C° 0 mm 1 mps 719 mmHg 70%
17:00 +12°C° 0 mm 1 mps 719 mmHg 75%
18:00 +10°C° 0 mm 1 mps 719 mmHg 79%
19:00 +8°C° 0 mm 1 mps 720 mmHg 83%
20:00 +8°C° 0 mm 1 mps 720 mmHg 82%
21:00 +7°C° 0 mm 0 mps 720 mmHg 81%
22:00 +6°C° 0 mm 0 mps 720 mmHg 81%
23:00 +6°C° 0 mm 0 mps 720 mmHg 79%

Mañana, 13 Agosto, Jueves

Tiempo Temperatura Precipitaciones Viento Presión Humedad
00:00 +6°C° 0 mm 0 mps 720 mmHg 77%
01:00 +6°C° 0 mm 0 mps 720 mmHg 76%
02:00 +6°C° 0 mm 0 mps 720 mmHg 75%
03:00 +6°C° 0 mm 0 mps 720 mmHg 74%
04:00 +6°C° 0 mm 0 mps 720 mmHg 74%
05:00 +6°C° 0 mm 0 mps 720 mmHg 73%
06:00 +6°C° 0 mm 0 mps 720 mmHg 73%
07:00 +6°C° 0 mm 0 mps 720 mmHg 72%
08:00 +10°C° 0 mm 1 mps 720 mmHg 67%
09:00 +12°C° 0 mm 1 mps 720 mmHg 62%
10:00 +14°C° 0 mm 1 mps 720 mmHg 57%
11:00 +14°C° 0 mm 1 mps 719 mmHg 58%
12:00 +15°C° 0 mm 1 mps 719 mmHg 58%
13:00 +15°C° 0 mm 2 mps 718 mmHg 58%
14:00 +15°C° 0 mm 2 mps 718 mmHg 63%
15:00 +14°C° 0 mm 2 mps 718 mmHg 67%
16:00 +13°C° 0 mm 2 mps 718 mmHg 72%
17:00 +12°C° 0 mm 1 mps 718 mmHg 77%
18:00 +11°C° 0 mm 1 mps 719 mmHg 82%
19:00 +9°C° 0 mm 1 mps 719 mmHg 87%
20:00 +8°C° 0 mm 0 mps 719 mmHg 88%
21:00 +8°C° 0 mm 0 mps 719 mmHg 89%
22:00 +8°C° 0 mm 0 mps 719 mmHg 90%
23:00 +8°C° 0 mm 0 mps 719 mmHg 91%

Pasado mañana, 14 Agosto, Viernes

Tiempo Temperatura Precipitaciones Viento Presión Humedad
00:00 +9°C° 0 mm 1 mps 719 mmHg 92%
01:00 +9°C° 0 mm 1 mps 719 mmHg 92%
02:00 +9°C° 0 mm 1 mps 719 mmHg 92%
03:00 +9°C° 0 mm 1 mps 720 mmHg 92%
04:00 +7°C° 0 mm 0 mps 720 mmHg 92%
05:00 +8°C° 0 mm 1 mps 720 mmHg 92%
06:00 +8°C° 0 mm 1 mps 721 mmHg 91%
07:00 +8°C° 0 mm 1 mps 721 mmHg 91%
08:00 +9°C° 0 mm 1 mps 721 mmHg 86%
09:00 +10°C° 0 mm 1 mps 721 mmHg 80%
10:00 +10°C° 0 mm 2 mps 721 mmHg 75%
11:00 +12°C° 0 mm 2 mps 721 mmHg 72%
12:00 +13°C° 0 mm 2 mps 720 mmHg 69%
13:00 +13°C° 0 mm 2 mps 720 mmHg 67%
14:00 +13°C° 0 mm 2 mps 720 mmHg 70%
15:00 +12°C° 0 mm 2 mps 720 mmHg 72%
16:00 +12°C° 0 mm 2 mps 720 mmHg 75%
17:00 +10°C° 0 mm 2 mps 721 mmHg 80%
18:00 +9°C° 0 mm 1 mps 721 mmHg 85%
19:00 +8°C° 0 mm 1 mps 722 mmHg 89%
20:00 +8°C° 0 mm 1 mps 722 mmHg 88%
21:00 +7°C° 0 mm 1 mps 722 mmHg 87%
22:00 +7°C° 0 mm 1 mps 722 mmHg 86%
23:00 +7°C° 0 mm 1 mps 722 mmHg 86%

15 Agosto, Sábado

Tiempo Temperatura Precipitaciones Viento Presión Humedad
00:00 +6°C° 0 mm 1 mps 722 mmHg 86%
01:00 +6°C° 0 mm 1 mps 722 mmHg 86%
02:00 +6°C° 0 mm 1 mps 721 mmHg 86%
03:00 +5°C° 0 mm 1 mps 721 mmHg 86%
04:00 +5°C° 0 mm 1 mps 721 mmHg 86%
05:00 +6°C° 0 mm 1 mps 721 mmHg 84%
06:00 +6°C° 0 mm 1 mps 721 mmHg 83%
07:00 +6°C° 0 mm 1 mps 721 mmHg 82%
08:00 +8°C° 0 mm 1 mps 721 mmHg 75%
09:00 +9°C° 0 mm 2 mps 721 mmHg 67%
10:00 +12°C° 0 mm 2 mps 721 mmHg 60%
11:00 +12°C° 0 mm 2 mps 720 mmHg 59%
12:00 +13°C° 0 mm 2 mps 720 mmHg 57%
13:00 +13°C° 0 mm 3 mps 720 mmHg 55%
14:00 +14°C° 0 mm 2 mps 720 mmHg 58%
15:00 +13°C° 0 mm 2 mps 720 mmHg 62%
16:00 +12°C° 0 mm 2 mps 720 mmHg 65%
17:00 +10°C° 0 mm 2 mps 720 mmHg 69%
18:00 +8°C° 0 mm 2 mps 720 mmHg 73%
19:00 +8°C° 0 mm 1 mps 721 mmHg 76%
20:00 +8°C° 0 mm 1 mps 721 mmHg 74%
21:00 +7°C° 0 mm 1 mps 721 mmHg 73%
22:00 +7°C° 0 mm 1 mps 721 mmHg 71%
23:00 +7°C° 0 mm 1 mps 721 mmHg 69%

16 Agosto, Domingo

Tiempo Temperatura Precipitaciones Viento Presión Humedad
00:00 +7°C° 0 mm 1 mps 720 mmHg 68%
01:00 +7°C° 0 mm 1 mps 720 mmHg 66%
02:00 +7°C° 0 mm 1 mps 720 mmHg 65%
03:00 +7°C° 0 mm 1 mps 719 mmHg 64%
04:00 +6°C° 0 mm 1 mps 719 mmHg 64%
05:00 +7°C° 0 mm 1 mps 719 mmHg 63%
06:00 +7°C° 0 mm 1 mps 719 mmHg 63%
07:00 +7°C° 0 mm 1 mps 719 mmHg 62%
08:00 +9°C° 0 mm 1 mps 719 mmHg 57%
09:00 +10°C° 0 mm 2 mps 719 mmHg 52%
10:00 +13°C° 0 mm 2 mps 719 mmHg 46%
11:00 +14°C° 0 mm 2 mps 719 mmHg 46%
12:00 +15°C° 0 mm 2 mps 719 mmHg 46%
13:00 +15°C° 0 mm 2 mps 719 mmHg 46%
14:00 +15°C° 0 mm 2 mps 719 mmHg 51%
15:00 +14°C° 0 mm 2 mps 719 mmHg 56%
16:00 +13°C° 0 mm 2 mps 719 mmHg 61%
17:00 +12°C° 0 mm 1 mps 719 mmHg 65%
18:00 +10°C° 0 mm 1 mps 719 mmHg 70%
19:00 +8°C° 0 mm 1 mps 720 mmHg 75%
20:00 +8°C° 0 mm 1 mps 720 mmHg 74%
21:00 +8°C° 0 mm 1 mps 720 mmHg 74%
22:00 +8°C° 0 mm 1 mps 720 mmHg 74%
23:00 +8°C° 0 mm 1 mps 720 mmHg 72%

17 Agosto, Lunes

Tiempo Temperatura Precipitaciones Viento Presión Humedad
00:00 +8°C° 0 mm 1 mps 720 mmHg 70%
01:00 +7°C° 0 mm 0 mps 720 mmHg 68%
02:00 +7°C° 0 mm 0 mps 720 mmHg 67%
03:00 +7°C° 0 mm 0 mps 720 mmHg 65%
04:00 +6°C° 0 mm 0 mps 720 mmHg 64%
05:00 +7°C° 0 mm 0 mps 720 mmHg 64%
06:00 +7°C° 0 mm 0 mps 720 mmHg 63%
07:00 +7°C° 0 mm 0 mps 720 mmHg 63%
08:00 +10°C° 0 mm 1 mps 720 mmHg 59%
09:00 +13°C° 0 mm 1 mps 720 mmHg 54%
10:00 +15°C° 0 mm 1 mps 720 mmHg 49%
11:00 +16°C° 0 mm 1 mps 720 mmHg 49%
12:00 +16°C° 0 mm 1 mps 720 mmHg 49%
13:00 +17°C° 0 mm 2 mps 719 mmHg 48%
14:00 +17°C° 0 mm 2 mps 719 mmHg 53%
15:00 +16°C° 0 mm 1 mps 719 mmHg 58%
16:00 +15°C° 0 mm 1 mps 719 mmHg 62%
17:00 +14°C° 0 mm 1 mps 720 mmHg 68%
18:00 +12°C° 0 mm 1 mps 720 mmHg 73%
19:00 +9°C° 0 mm 0 mps 720 mmHg 78%
20:00 +10°C° 0 mm 1 mps 720 mmHg 77%
21:00 +9°C° 0 mm 1 mps 721 mmHg 77%
22:00 +9°C° 0 mm 1 mps 721 mmHg 76%
23:00 +9°C° 0 mm 1 mps 721 mmHg 73%
Mostrar más